Regional Weather Roundup
Issued by NWS

Home | Current Version | Previous Version | Text Only | Print | Product List | Glossary On
Versions: 1 2 3 4 5 6 7 8 9 10 11 12 13 14 15 16 17 18 19 20 21 22 23 24 25 26 27 28 29 30 31 32 33 34 35 36 37 38 39 40 41 42 43 44 45 46 47 48 49 50
000
ASUS44 KOUN 240700
RWROK

WEATHER ROUNDUP FOR OKLAHOMA
NATIONAL WEATHER SERVICE NORMAN OK
200 AM CDT FRI OCT 24 2014

NOTE: "FAIR" INDICATES FEW OR NO CLOUDS BELOW 12,000 FEET WITH NO
      SIGNIFICANT WEATHER AND/OR OBSTRUCTIONS TO VISIBILITY.

OKZ001>007-009>012-014-015-017-240800-
NORTHWEST OKLAHOMA AND THE PANHANDLE

CITY           SKY/WX    TMP DP  RH WIND       PRES   REMARKS
GAGE           CLEAR     60  58  92 CALM      30.09S
$$

OKZ016-021>023-033>039-044-045-240800-
SOUTHWEST OKLAHOMA

CITY           SKY/WX    TMP DP  RH WIND       PRES   REMARKS
LAWTON/REGL    CLEAR     63  57  81 SE7       30.09S
LAWTON/FT SILL CLEAR     62  58  86 S8        30.08S
FREDERICK      CLEAR     63  58  83 SE8       30.05S
CLINTON        CLEAR     63  58  83 S10       30.10S
HOBART         CLEAR     62  58  86 S3        30.09R
ALTUS AFB      CLEAR     59  59 100 E3        30.08S
$$

OKZ018>020-024>031-240800-
CENTRAL OKLAHOMA

CITY           SKY/WX    TMP DP  RH WIND       PRES   REMARKS
OKLAHOMA CITY  PTCLDY    60  56  86 S5        30.09S
OKC/WILEY POST CLEAR     63  57  81 S12       30.09R
OKC/TINKER AFB CLEAR     60  56  86 S9        30.10R
STILLWATER     CLEAR     59  56  89 SE5       30.09R
GUTHRIE        CLEAR     62  58  86 S7        30.09R
$$

OKZ008-013-054>072-240800-
NORTHEAST OKLAHOMA

CITY           SKY/WX    TMP DP  RH WIND       PRES   REMARKS
TULSA          MOCLDY    61  55  81 SE6       30.10R
TULSA/JONES    CLEAR     57  55  93 CALM      30.11R
PONCA CITY     CLEAR     60  57  89 SE9       30.08R
BARTLESVILLE   MOCLDY    57  56  96 CALM      30.12R
MUSKOGEE       MOCLDY    57  54  89 SE5       30.13S
$$

OKZ032-040>043-046>053-073>077-240800-
SOUTH CENTRAL/SOUTHEAST OKLAHOMA

CITY           SKY/WX    TMP DP  RH WIND       PRES   REMARKS
MCALESTER      MOCLDY    54  52  93 CALM      30.12F
$$




USA.gov is the U.S. government's official web portal to all federal, state and local government web resources and services.